Tracking 19247 objects as of 26-Sep-2018
HD Live streaming from Space Station
objects crossing your sky now

FENGYUN 1C DEB

Track FENGYUN 1C DEB now!
10-day predictions


NORAD ID: 37895
Int'l Code: 1999-025EMU
Perigee: 849.5 km
Apogee: 1,339.6 km
Inclination: 99.2 °
Period: 107.0 minutes
Semi major axis: 7465 km
RCS: 0.003 m2 (small)
Launch date: May 10, 1999
Source: People's Republic of China (PRC)
Launch site: Taiyaun Space Center, China (TSC)

Note: This is SATELLITE DEBRIS
aabbcc
Your satellite tracking list
Your tracking list is empty




NASA's NSSDC Master Catalog

Two Line Element Set (TLE):
1 37895U 99025EMU 18265.91578525 +.00000571 +00000-0 +74125-3 0  9996
2 37895 099.2080 304.5834 0328238 321.8148 036.0137 13.45888960431170
Source of the keplerian elements: AFSPC